Location: Unspecified
(49.2170°N, 0.0000°E)
Time: 00:56:42
(UTC+00:00)

Explorer 7 - Pass Details

Date: 30 January 2021
Orbit: 484 x 677 km, 50.3° (Epoch: 06 March)

Event Time Altitude Azimuth Distance (km) Brightness Sun altitude
Exits shadow 05:01:09 54° 65° (ENE) 630 7.3 -24.9°
Drops below altitude 10° 05:04:23 10° 84° (E) 1,775 10.5 -24.4°
Sets 05:06:40 0° 86° (E) 2,697 11.8 -24.0°
